Find Starlink 35573

NORAD ID: 66116 Int'l Des: 2025-237 Owner: SPXS Country: US Constellation: starlink operational
LEOCIRCULAR

当前视图

正在加载3D地球...

About Starlink 35573

Starlink 35573 (NORAD 66116) is a starlink constellation satellite (v2 mini) launched Oct 22, 2025 by SPXS of US. It operates in LEO, CIRCULAR orbit with a mass of 575.00 kg.

即将过境

Passes for default location (London). Set your location on the main map for personalized predictions.

高度历史

Loading altitude history...

两行轨道根数

1 66116U 25237C 26263.57649732 .00017110 00000-0 51624-3 0 9992
2 66116 53.1588 211.2017 0001470 85.0901 275.0269 15.34407539 52493
Epoch: Sep 20, 2026 • Age: 9 hours

当前状态

高度 462.9 km
远地点 / 近地点 N/A
速度 7.64 km/s
星下点 5.65°N, 49.45°E
发射日期 Oct 22, 2025
运行时间 0.9 years
类型 internet

技术详情

分类 Payload
质量 575.00 kg
干质量 530.00 kg
长度 0.30 m
跨度 29.00 m
形状 ? Box + pan
制造商 SPXS
平台类型 Starlink V2MO
阶段状态 In Orbit
所有者/国家 SPXS/US

Most Searched